Погода в Валуйки

Погода в Валуйки : погода сейчас, прогноз погоды и архив. Всё, что Вы хотите узнать о погоде в Валуйки!

Хотите узнать прогноз погоды в Валуйки? Тогда Вам сюда: Погода в Валуйки

Поиск расширенной информации на нашем сайте:

Другие новости

Новости СМИ2

Главная страница сайта

Новости сайта

02.10.2013

Напоминаем, что на нашем новом сайте вы можете получить высокодетализированные прогнозы погоды по пунктам России, СНГ и мира (включающие важные для авиации метеовеличины, такие как направление и скорость ветра, видимость, явления погоды, количество и форма облачности, нижняя и верхняя граница облачности), а также ознакомиться с разнообразными материалами по авиационной метеорологии и подборкой полезных ссылок на эту тему.

Сайт Метеоцентр.Азия посвящён разработке технологий оптимизации авиаметеорологического обслуживания, включая проектирование и перспективное создание нескольких автоматизированных авиаметеорологических систем:
- система выпуска высокодетальных прогностических карт явлений погоды для нижнего воздушного пространства по России и ближнему зарубежью;
- система верификации прогнозов TAF (выпускаемых синоптиками официальных АМСГ РФ и ближнего зарубежья) и AUTOTAF (выпускаемых сайтом Метеоцентр.Азия) - выявление ошибок, онлайн-сопоставление с фактической погодой METAR, автоматическое внесение коррективов в прогнозы при резком отклонении фактической погоды от прогноза, подсчёт оправдываемости прогнозов по элементам и в целом;
- система обработки, анализа и отображения авиаметеорологической информации для применения провайдерами метеорологической информации.

Рекомендуем: Легковые и грузовые авто, продажа: бесплатные занятия на роликах.

Погода в Валуйки - сегодня

Время (UTC), дата Ветер
(°,м/с) 
Видим.   Явления Облачность Т
(°С)
Тd
(°С)
f(%) Тe
(°С)
Pmin
(гПа)
dP
(гПа)
Po
(мм)
O2
(г/м3)
Тmin Tmax R s Состояние
почвы
00 25.04.17 320 (СЗ) 10 км    ясно 
+1.9 -3.5 67 +3  1016.2  2.9  752  301           
03 25.04.17 320 (СЗ) 20000 м    ясно 
-0.3 -4.1 75 1018.8  2.5  754  304  -0.4         
06 25.04.17 280 (З) 20000 м    ясно 
+7.6 -1.7 52 +9  1020.4  1.9  755  296  -0.4        сухая 
09 25.04.17 240 (ЮЗ) 20000 м    3/3 1000 м 
[Cu hum]
+12.5 -7.1 25 +12  1021.5  1.3  756  292           
12 25.04.17 250 (З) 20000 м    6/3 1000 м верхняя 
[Cu hum|Ci fib]
+12.7 -5.4 28 +13  1021.5  756  292           
15 25.04.17 230 (ЮЗ) 20000 м    8/0 средняя, верхняя 
[Ac trans|Ci fib]
+12.4 -4.4 31 +12  1021.8  0.3  756  292           
18 25.04.17 200 (Ю) 10 км    9/0 средняя 
[Ac trans]
+10.6 -2.2 41 +12  1023.1  1.2  757  294    +14.1       
21 25.04.17 100 (В) 10 км    ясно 
+4.2 -0.3 72 +5  1024.2  0.8  758  301           
00 26.04.17 120 (ЮВ) 10 км    ясно 
+4.8 -0.5 69 +6  1024.8  0.5  758  300           
03 26.04.17 160 (Ю) 20000 м    ясно 
+3.8 +0.4 78 +5  1025.5  0.6  758  301  +3.6         
06 26.04.17 230 (ЮЗ) 20000 м    ясно 
+11.4 -1.4 41 +10  1025.6  0.5  759  294  +3.6        сухая 
09 26.04.17 240 (ЮЗ) 6{12}  20000 м    3/3 1000 м верхняя 
[Cu hum|Ci fib]
+15.3 -1.4 32 +15  1025.3  -0.1  759  290           
12 26.04.17 220 (ЮЗ) 6{12}  20000 м    1/0 верхняя 
[Ci fib]
+17.1 -5 22 +17  1024.6  -0.6  758  288           
15 26.04.17 220 (ЮЗ) 5{13}  20000 м    1/0 верхняя 
[Ci fib]
+16.8 +0.4 33 +17  1023.3  -1.2  757  287           
18 26.04.17 180 (Ю) 10 км    3/0 верхняя 
[Ci fib]
+12.8 +0 41 +13  1024.4  0.8  758  292    +17.5       
21 26.04.17 140 (ЮВ) 10 км    ясно 
+9 +0.6 56 +10  1025  0.4  758  296           
00 27.04.17 130 (ЮВ) 10 км    ясно 
+5.5 +0 68 +6  1025.2  0.1  758  300           
03 27.04.17 120 (ЮВ) 10 км    3/0 верхняя 
[Ci fib]
+4.6 +0.4 74 +4  1025.1  -0.2  758  300  +4.2         
06 27.04.17 150 (ЮВ) 20000 м    3/0 верхняя 
[Ci fib]
+13.2 +2.9 50 +14  1024.6  758  291  +4.2        сухая 
09 27.04.17 200 (Ю) 20000 м    3/0 верхняя 
[Ci fib]
+19.1 -2.7 23 +20  1023.9  -0.5  758  286           
12 27.04.17 190 (Ю) 4-10{11}  20000 м    4/0 верхняя 
[Ci fib]
+22.1 -3.6 18 +22  1021.9  -1.7  757  282           
15 27.04.17 190 (Ю) 3{10}  20000 м    6/0 верхняя 
[Ci]
+21.7 -3.6 18 +22  1021.1  -0.8  756  283           
18 27.04.17 120 (ЮВ) 10 км    4/0 верхняя 
[Ci fib]
+16.3 +1.1 36 +17  1021.6  0.2  756  287    +22.7       
21 27.04.17 150 (ЮВ) 10 км    ясно 
+12.5 +0.6 44 +13  1022.3  0.5  757  291           
00 28.04.17 130 (ЮВ) 10 км    ясно 
+10.1 +2.1 58 +10  1022.7  0.3  757  294           
Время (UTC), дата Ветер
(°,м/с) 
Видим.   Явления Облачность Т
(°С)
Тd
(°С)
f(%) Тe
(°С)
Pmin
(гПа)
dP
(гПа)
Po
(мм)
O2
(г/м3)
Тmin Tmax R s Состояние
почвы

Для получения пояснительной информации подведите курсор к названию столбца.

ПОГОДА в Валуйки - архив

Всё, что Вы хотите узнать о погоде в Валуйки - удобно и подробно!

Выберите нужную дату (начиная с 1 января 2015* года) и нажмите кнопку "Найти".
Будут отображены архивные сводки погоды по пункту Валуйки, начиная с указанной даты.


Отображать данные в формате CSV (для использования в таблицах Excel)


Внимание! Наш архив погоды предназначен исключительно для личного некоммерческого использования в познавательных целях. Если Вам необходимы официальные справки о состоянии погоды (для производственных, юридических, коммерческих и т.п. целей), обращайтесь в органы Росгидромета.

*Примечание: данная дата относится к архиву по метеостанциям СССР (Россия, СНГ, Балтия).
Архив по метеостанциям Зарубежной Европы и Азии (кроме Китая) хранится 10 дней, по другим регионам земного шара (Китай, Африка, Америка, Австралия, Океания) - 1 день.

Валуйки - район местоположения метеостанции


Название, широта, долгота, высота метеостанции:
Валуйки 50.2°ш. 38.1°д. 112 м над ур. моря [Российская Федерация]

Дополнительная информация

В oтличие oт бoльшинства пoгoдных сайтoв мы публикуем пoдрoбную метеoинфoрмацию в детальнoм прoфессиoнальнoм фoрмате.

Характеристики температуры и влажнoсти вoздуха измеряются на высoте 2 м в тени вдали oт зданий и деревьев.
Скoрoсть ветра измеряется на высoте 10 м (на урoвне рoста челoвека скoрoсть ветра ниже в 1.5-2 раза). Если метеoстанция нахoдится в гoрoде или в лесу, тo скoрoсть ветра занижена на 2-4 м/с пo сравнению с oткрытым местoм. Скoрoсть ветра над акватoриями крупных рек и oзёр, а также на вершинах хoлмoв на 2-5 м/с выше, чем в oбычных услoвиях.
Атмoсфернoе давление в разных тoчках местнoсти мoжет значительнo oтличаться oт давления на метеoстанции, в зависимoсти oт услoвий рельефа (при пoдъёме на 10 м давление пoнижается примернo на 1 мм рт.ст.).